Theta_e
312 311 310 310 309 310 310 309 308 308 308 307 307 307 307 305 304 303 303 303 302 302 303 303 304 304 305 306 306 307 309 311 313 316 319 322 326 328 328 328 327 326 325 325 325 324 324 325 326 327 328 328 328 327 327 327 328 328 329 329 329 328 328 327 326 325 324 324 324 323 323 322 321 321 321 321 321 321 321 320 320 321 321 322 322 322
311 311 310 309 309 309 310 309 308 307 307 307 307 307 307 305 304 303 303 303 302 302 302 302 303 304 304 305 305 306 307 309 311 313 316 320 324 327 329 329 328 327 327 328 327 327 327 328 329 330 329 328 327 327 327 328 328 329 329 328 327 327 326 325 324 323 323 323 323 322 322 321 321 321 321 322 321 320 320 321 321 322 322 322 322 322
311 310 310 309 309 309 309 308 308 307 307 307 306 306 306 306 304 303 302 302 302 302 302 302 302 303 303 304 304 305 306 307 309 311 313 316 320 323 326 328 329 329 329 329 329 329 330 330 331 330 329 327 327 328 328 328 328 328 327 326 325 324 323 323 323 322 322 322 322 322 322 322 321 321 321 320 320 320 321 322 322 322 322 322 321 321
310 310 309 309 308 308 309 308 307 307 306 306 306 306 306 306 305 303 302 302 302 302 302 302 302 302 303 303 303 304 305 306 307 309 311 313 316 319 322 324 326 328 329 330 330 330 331 331 331 330 329 328 328 328 328 328 327 326 325 324 324 323 323 322 322 322 322 322 322 322 322 321 320 320 320 320 321 321 322 322 322 321 321 321 320 320
310 309 309 308 308 308 308 308 307 306 306 306 306 305 306 306 305 304 303 302 302 301 301 302 302 302 302 302 302 303 304 305 306 307 308 310 313 315 318 321 323 324 326 328 329 331 331 331 331 330 328 328 328 328 328 327 326 325 324 324 323 323 323 322 322 322 322 322 322 322 321 320 320 320 320 321 321 322 322 321 321 321 321 320 320 319
309 309 308 308 307 307 308 307 307 306 306 306 305 305 305 306 305 304 303 302 301 301 301 301 301 301 301 301 301 302 303 304 305 306 307 308 310 312 314 317 319 321 323 324 326 328 330 330 329 329 328 327 328 328 327 326 325 324 324 324 323 323 322 322 322 322 322 322 322 321 320 320 320 321 321 322 322 322 321 321 321 321 320 320 319 318
308 308 307 307 307 307 307 307 306 305 305 305 305 304 304 305 305 305 303 302 301 301 301 301 301 301 301 301 301 301 302 303 304 304 305 306 307 309 311 313 315 317 319 320 321 323 325 327 328 327 327 327 327 327 327 325 324 324 324 323 323 322 322 322 322 322 322 322 322 321 320 320 321 321 321 322 322 322 321 321 321 320 320 318 317 314
308 307 307 306 306 306 306 306 306 305 305 305 304 304 304 304 305 305 304 303 301 300 300 300 301 301 301 301 301 301 301 301 302 303 304 305 306 307 309 310 312 314 315 317 318 319 320 322 324 325 326 326 326 326 325 325 324 324 323 323 322 322 321 321 321 322 322 321 321 320 320 320 320 321 321 321 321 321 321 321 320 319 317 315 312 309
307 307 306 306 305 305 305 305 305 305 305 304 304 303 303 303 304 305 304 303 302 301 300 299 300 300 301 301 300 300 300 300 301 301 302 303 304 305 306 308 309 311 313 314 315 317 317 319 320 321 322 323 324 324 323 323 323 323 323 322 321 320 320 320 320 321 321 321 320 320 320 320 320 321 321 321 321 321 321 320 318 315 313 310 308 307
306 306 305 305 305 304 304 304 305 305 304 304 303 303 303 303 303 304 304 304 303 301 300 299 298 299 300 300 300 300 300 300 300 301 301 302 303 303 304 305 307 309 310 312 313 314 315 316 316 318 319 320 320 321 322 322 323 322 322 320 320 319 319 319 320 320 320 320 320 319 320 320 321 321 322 322 322 321 320 318 316 313 310 309 308 307
305 305 305 304 304 304 304 304 304 304 304 303 303 303 302 302 302 303 303 303 303 302 301 299 298 298 298 299 299 299 299 300 300 301 301 302 302 303 304 304 305 307 308 309 310 312 313 313 314 314 315 318 320 321 322 322 322 321 321 320 319 319 319 319 319 318 318 318 318 318 319 320 321 322 322 322 321 321 320 318 316 314 312 311 310 310
305 304 304 304 303 303 303 303 303 303 304 303 302 302 302 301 301 302 302 302 302 302 301 300 299 297 297 297 298 298 299 299 299 299 300 301 302 302 303 303 304 305 306 307 308 309 310 312 312 312 312 314 317 320 321 322 321 320 320 319 319 318 318 317 317 316 316 316 317 318 319 320 321 321 321 320 320 320 319 318 317 316 314 314 314 315
304 304 303 303 303 302 302 302 302 303 303 303 302 302 301 301 301 301 301 301 301 301 302 301 299 298 297 297 297 297 297 297 297 298 298 299 300 300 301 302 302 303 303 304 304 305 307 309 310 310 310 310 312 313 316 317 318 318 318 317 317 316 316 315 315 315 315 316 317 319 320 320 320 320 319 319 319 319 318 318 317 317 316 316 316 317
303 303 303 303 302 302 302 302 302 302 303 303 302 301 300 300 300 300 300 301 300 300 301 301 300 299 298 297 297 297 297 297 297 297 297 297 298 299 300 301 301 302 302 302 302 303 304 305 307 308 309 309 309 310 311 312 313 313 314 314 314 314 313 313 313 314 315 316 318 319 319 319 319 319 318 318 318 318 317 317 317 317 316 316 316 316
302 302 302 302 302 302 301 301 301 302 302 302 301 301 300 300 300 300 300 299 299 300 300 301 301 300 299 297 296 296 296 296 296 296 296 296 296 297 298 299 300 301 301 301 301 301 302 303 303 305 306 307 308 309 309 309 309 310 310 311 311 311 311 312 312 312 313 314 316 317 318 318 318 318 317 317 317 317 317 317 317 317 317 317 317 316
302 302 302 302 301 301 301 301 301 301 302 302 301 300 300 299 299 299 299 299 299 299 299 300 301 301 300 299 297 296 296 296 296 296 295 295 295 296 297 298 299 299 300 301 301 301 301 301 302 302 303 305 306 307 308 308 308 308 308 309 309 309 310 310 310 311 312 313 314 315 315 316 316 316 316 316 316 316 316 316 317 317 317 317 316 316
301 301 301 301 301 301 301 301 301 301 301 301 301 300 300 299 299 299 299 298 298 298 298 299 299 300 300 299 298 297 296 296 296 296 295 295 295 295 295 296 297 298 299 299 300 301 301 301 301 301 302 303 304 306 306 306 306 306 306 306 307 308 308 310 311 312 313 314 313 313 313 314 314 315 315 314 314 315 316 316 317 317 316 316 314 313
301 301 301 301 301 301 301 301 301 301 301 301 301 301 300 300 299 299 298 298 298 298 298 298 298 298 298 298 298 297 297 297 297 296 296 295 295 295 295 295 296 296 297 298 299 300 300 300 301 301 301 302 303 304 305 305 304 304 304 304 305 306 307 309 311 312 313 312 312 311 311 311 312 312 312 312 312 313 315 316 317 316 314 312 310 308
301 301 301 301 301 301 301 301 301 301 301 301 301 301 300 300 300 299 299 298 298 297 297 297 297 297 297 296 297 297 297 297 297 297 296 295 295 295 295 295 295 295 296 297 298 299 299 300 300 300 301 303 304 305 306 306 306 306 305 305 305 305 306 307 309 310 310 310 309 309 308 309 309 310 310 310 310 311 312 313 313 312 311 309 306 305
300 300 300 300 300 301 300 300 300 301 301 301 301 301 301 301 300 300 299 298 298 297 297 297 296 296 296 296 297 297 297 298 297 297 296 296 295 295 295 295 295 295 295 295 296 298 298 299 299 300 301 302 303 304 305 306 307 308 309 309 309 308 307 307 307 307 306 306 306 306 306 307 307 307 307 307 306 307 307 307 307 307 307 306 305 304
299 299 299 300 300 300 300 300 300 301 301 301 302 301 301 301 301 300 300 299 298 298 297 297 296 296 296 296 296 297 297 298 297 297 297 296 295 295 295 295 295 295 294 294 295 296 297 298 299 299 300 300 301 302 303 304 305 306 307 308 309 309 308 307 306 306 305 305 305 305 305 305 305 305 304 304 305 305 305 305 306 306 305 305 304 304
299 299 299 299 299 300 300 300 301 301 302 302 302 302 302 302 301 301 300 299 299 298 297 297 297 296 296 296 296 297 297 297 297 297 296 296 295 294 294 295 295 295 294 294 295 295 296 297 298 298 299 299 300 301 302 303 304 305 306 307 308 308 308 307 307 306 306 306 305 305 304 304 303 303 303 303 304 304 304 304 304 304 304 303 303 302
299 299 299 299 299 299 300 300 301 301 302 303 303 303 303 302 302 302 301 300 299 299 298 298 297 297 297 297 297 297 297 297 297 297 296 295 294 294 294 295 295 294 294 294 295 295 296 296 296 297 297 298 299 300 301 302 303 304 305 306 306 307 307 307 307 307 306 306 305 304 303 302 302 301 301 302 302 302 302 302 302 302 302 302 302 302
299 299 299 299 299 299 299 300 300 301 302 303 303 303 303 302 302 302 301 301 300 300 299 299 298 298 298 298 298 298 297 297 298 297 296 295 294 294 294 295 295 294 294 294 295 296 296 296 296 296 297 297 298 298 299 300 300 301 302 303 303 304 304 305 305 305 305 305 304 303 302 301 301 301 301 301 301 301 301 301 301 302 302 302 302 302
299 299 299 299 299 299 299 300 300 301 302 302 303 303 303 302 302 302 301 301 301 300 300 299 299 298 298 297 297 297 297 297 298 297 296 295 294 294 294 295 294 294 294 295 296 297 297 297 297 297 297 297 297 297 298 298 299 299 300 301 301 302 302 303 303 303 303 302 302 302 301 301 301 301 301 301 301 302 302 302 302 302 302 302 302 302
298 298 298 298 298 298 299 299 300 301 301 302 302 302 302 302 302 302 302 302 301 301 300 300 299 299 298 297 297 297 297 297 298 298 297 295 295 294 294 295 295 294 294 295 296 297 297 297 297 298 298 297 297 297 297 298 298 298 299 299 300 300 301 301 301 301 301 300 300 300 300 300 300 301 301 301 302 302 302 302 302 302 302 302 302 302
298 298 298 298 298 298 298 299 300 300 301 302 302 302 302 302 302 302 302 302 302 301 301 300 300 299 299 298 297 297 297 297 298 297 297 296 295 294 295 295 295 295 294 295 295 296 296 296 296 297 298 298 298 298 298 298 298 298 299 299 299 299 299 299 299 299 299 299 299 300 300 300 300 301 301 301 301 301 301 301 301 302 302 302 302 302
298 298 298 298 298 298 299 299 300 301 301 302 302 302 302 301 301 300 300 302 302 302 301 301 300 300 299 298 298 297 297 297 297 297 297 297 295 294 295 296 296 296 295 295 295 295 295 294 294 295 296 297 298 298 299 299 299 299 299 298 298 298 298 298 298 298 298 298 299 299 300 300 301 301 301 301 301 301 301 301 301 301 301 301 301 301
299 298 298 298 299 299 300 300 301 301 302 302 302 302 301 300 299 299 300 301 302 302 302 301 301 300 300 299 299 298 298 297 297 297 298 297 296 295 295 296 297 297 296 296 296 296 294 293 292 292 293 294 295 296 297 297 298 298 298 298 297 297 297 297 297 298 298 299 299 300 300 300 301 301 301 301 301 301 301 301 301 301 301 301 301 301
299 299 299 299 300 300 300 300 300 300 301 301 302 302 301 300 299 299 300 300 301 301 301 301 300 300 301 301 300 299 298 298 297 297 298 297 295 295 295 296 297 297 297 297 297 296 294 293 291 290 290 291 292 292 293 295 295 296 296 296 296 296 297 297 298 298 299 299 300 300 300 300 301 301 301 301 301 301 301 301 301 301 301 301 301 301
297 298 298 299 299 300 300 300 300 300 301 301 301 301 301 300 299 299 300 300 300 300 300 299 298 298 299 299 299 298 297 297 297 297 297 297 296 295 296 296 296 296 297 298 297 296 295 294 292 290 290 290 291 291 292 293 294 295 295 296 296 296 297 297 298 298 299 299 300 300 300 300 301 301 301 301 302 302 302 302 301 301 301 301 301 301
297 297 296 297 298 299 299 299 300 300 300 300 301 300 300 300 300 299 299 299 299 299 299 298 297 297 296 297 297 296 296 297 297 297 297 298 297 296 296 296 296 296 297 298 298 297 295 295 293 291 290 291 291 292 293 294 294 295 295 295 296 296 297 297 298 298 299 299 300 300 301 301 301 301 301 301 301 301 302 301 301 301 301 301 301 301
296 296 296 296 297 298 298 298 298 299 299 299 300 300 301 301 301 300 300 299 299 298 297 298 297 297 296 296 296 295 295 297 298 298 298 298 298 297 297 297 297 297 298 298 299 297 295 295 294 292 291 291 291 292 293 294 295 295 295 296 296 296 296 297 298 299 299 300 300 300 301 301 301 301 301 301 301 301 301 301 301 301 301 301 301 301
296 295 295 296 296 296 296 296 297 297 297 298 298 299 300 301 301 301 300 300 300 299 297 297 297 297 297 296 296 296 296 297 298 299 299 299 298 298 298 298 298 297 297 297 297 296 295 295 294 294 293 291 291 292 292 293 294 295 295 296 296 296 297 297 297 298 299 299 300 300 300 301 301 301 301 301 301 301 301 301 301 301 301 301 301 301
296 296 295 295 295 295 295 295 295 295 296 296 297 298 299 300 300 301 300 300 300 299 299 298 297 297 297 296 296 296 296 297 298 298 299 299 298 298 298 298 298 298 297 297 296 295 295 294 294 295 294 293 292 291 291 292 292 293 294 295 296 296 297 297 297 298 299 299 300 300 300 300 301 301 301 301 301 300 300 300 300 300 300 300 300 300
296 295 295 294 294 293 294 294 294 294 294 295 296 297 298 299 299 300 300 300 299 299 299 298 298 297 297 296 296 296 296 296 297 297 298 298 299 298 298 297 298 298 297 297 296 296 295 294 294 294 294 293 293 292 291 291 292 292 293 294 295 296 296 296 297 298 298 299 299 300 300 300 300 301 301 301 300 300 300 300 300 300 300 300 300 300
295 295 295 294 293 292 292 293 293 293 293 294 295 296 297 298 298 299 299 299 299 299 298 298 297 297 297 296 296 296 295 295 295 296 296 297 298 298 297 297 298 298 298 298 297 297 296 295 294 294 294 293 292 292 291 291 291 292 292 293 294 295 296 296 297 297 298 299 299 299 300 300 300 300 300 300 300 300 300 300 300 300 300 300 299 300
295 295 295 295 295 294 293 293 293 293 293 293 294 295 295 296 297 298 298 298 298 298 298 298 297 297 296 296 296 295 295 295 295 295 295 296 297 297 297 297 297 298 298 298 298 298 297 296 294 293 293 293 292 291 291 291 291 291 292 292 293 294 295 296 297 298 298 299 299 299 300 300 300 300 300 300 300 300 300 300 300 300 300 300 299 299
294 294 295 295 295 295 294 294 294 294 294 294 294 294 294 295 295 296 297 297 297 297 298 298 297 297 297 296 296 296 295 295 295 295 295 296 296 297 297 297 297 297 297 298 298 298 297 296 295 294 294 293 292 292 291 291 291 291 291 292 293 293 294 296 297 298 299 299 299 299 299 300 300 300 300 300 300 300 300 300 300 300 300 299 299 299
294 294 294 294 294 295 295 295 296 296 296 296 295 295 294 294 294 294 295 296 297 297 297 297 297 297 297 296 296 296 296 295 295 295 295 295 296 296 296 296 296 296 297 297 298 298 297 295 295 294 294 293 293 293 292 292 291 291 292 293 293 293 293 295 296 297 298 298 299 299 299 299 299 299 300 300 300 300 299 299 299 299 299 299 299 299
294 294 294 294 295 296 296 296 296 296 296 297 296 296 295 295 294 294 294 295 295 296 296 296 296 296 296 296 296 296 296 296 296 295 295 295 295 295 295 295 295 295 296 297 297 297 297 296 295 294 294 294 293 293 293 292 292 291 292 293 293 293 293 293 294 296 297 298 298 298 298 298 298 299 299 299 299 299 299 299 299 299 299 299 299 299
293 293 293 294 295 295 295 296 296 297 297 297 297 297 295 295 294 294 294 294 294 294 295 296 296 296 296 295 295 295 295 295 295 295 295 295 295 295 295 295 294 295 296 296 296 296 296 296 296 295 295 294 294 294 293 293 293 292 292 292 293 294 293 293 294 295 296 297 297 298 298 298 298 298 298 298 298 298 298 298 298 298 298 298 298 298
292 292 292 293 293 293 294 295 295 296 297 298 297 296 296 295 296 296 296 296 296 295 295 296 296 296 295 295 294 294 295 295 295 295 295 295 295 295 295 295 295 295 295 294 294 295 295 295 295 295 295 295 295 294 294 293 293 293 293 292 293 294 294 294 294 294 296 296 297 297 297 297 297 297 297 297 297 298 298 298 298 298 298 298 298 298
291 292 292 292 292 293 293 293 293 294 295 295 295 295 295 296 296 296 296 297 297 297 296 296 296 296 294 294 293 293 294 294 294 295 295 295 295 295 295 295 295 295 295 294 294 294 294 294 295 295 295 295 295 294 294 294 293 293 293 293 293 293 293 293 294 295 296 296 296 296 296 296 296 297 297 297 297 297 297 298 298 297 297 298 298 298
292 292 292 292 292 292 292 292 292 292 292 293 293 293 294 295 296 296 296 296 296 296 296 296 296 296 294 294 292 292 292 293 294 294 295 295 295 295 295 295 294 294 294 294 294 294 294 294 294 294 294 294 294 294 294 294 293 293 293 293 293 293 293 293 294 295 295 295 295 295 295 296 296 297 297 297 297 297 297 297 297 297 297 297 297 298
292 292 293 292 292 292 293 293 293 292 292 292 292 292 293 293 294 294 294 295 295 295 295 295 295 295 294 294 293 292 291 291 291 292 293 294 294 294 294 294 294 294 293 294 293 293 293 294 294 294 294 294 294 294 294 294 293 293 293 293 293 293 293 293 294 295 295 295 295 295 295 295 296 296 296 296 296 296 296 297 296 296 297 297 297 297
292 292 292 292 293 293 293 293 294 294 293 292 292 292 292 292 292 292 293 293 294 294 294 294 294 294 294 294 293 293 292 291 290 290 291 292 293 293 293 294 294 294 294 293 293 293 293 293 293 294 294 294 293 293 293 293 293 293 293 293 293 293 293 293 293 294 294 294 295 295 295 295 296 296 296 296 296 296 296 296 296 296 296 296 296 296
292 292 292 292 292 292 293 293 294 294 294 293 292 292 291 291 292 292 292 293 293 294 294 294 294 294 294 294 293 293 292 291 291 290 290 290 291 292 292 292 293 293 293 293 293 293 293 293 293 293 293 293 293 293 293 292 293 293 293 293 293 293 293 293 293 294 294 294 294 295 295 295 296 296 296 296 296 296 296 296 296 296 296 296 296 296
291 292 292 292 292 292 292 292 293 293 293 293 292 292 291 291 291 292 292 292 293 293 294 294 294 294 294 294 293 293 293 292 291 291 290 290 290 291 291 292 292 292 293 293 293 293 293 293 292 292 292 293 293 293 292 292 292 292 292 292 292 292 293 293 294 294 295 295 294 294 295 295 296 296 296 296 296 296 296 296 296 296 296 296 296 296
291 291 291 291 292 292 292 292 292 292 292 292 292 292 291 291 291 291 291 292 292 293 293 293 293 293 293 293 293 293 293 292 292 291 290 290 290 290 291 292 292 292 292 293 293 293 293 293 293 292 292 292 292 292 292 291 291 292 292 292 291 291 292 293 294 294 294 295 295 295 295 295 296 296 296 296 296 295 295 295 295 295 295 296 296 295
290 290 290 291 291 291 291 292 292 292 292 292 292 292 292 291 291 291 291 292 292 293 293 293 293 293 293 293 293 292 292 292 292 291 290 290 290 290 291 291 292 293 294 294 294 294 294 293 292 292 292 291 291 291 291 291 291 291 291 292 291 292 292 293 294 294 295 295 295 295 295 295 296 296 296 296 296 295 295 295 295 295 295 295 295 295
Wind_Speed
18 20 22 24 24 23 22 25 28 27 26 27 28 28 29 33 34 34 34 36 37 37 38 38 39 40 41 42 44 46 47 48 48 46 40 29 18 7 2 3 5 7 9 12 14 15 17 17 17 16 15 13 12 11 9 6 5 10 21 35 46 51 52 51 50 50 50 50 50 48 47 44 41 38 35 34 34 34 35 36 36 35 32 29 27 24
19 20 21 23 23 21 20 25 27 27 26 27 27 27 27 30 33 34 35 36 36 37 38 38 39 40 41 42 44 45 47 48 49 48 45 38 27 16 7 4 5 6 7 8 10 12 14 15 16 16 17 17 16 15 13 11 15 24 34 43 49 51 51 51 50 50 51 50 49 46 43 39 36 33 33 34 36 38 39 38 35 32 29 26 24 23
19 19 21 22 22 20 20 24 26 26 25 25 26 26 25 28 32 34 35 35 35 36 38 39 39 40 41 42 43 44 46 47 49 49 48 44 37 27 17 9 5 7 8 9 9 9 10 11 14 17 20 21 21 21 22 24 30 38 44 49 51 52 51 50 50 50 49 47 44 41 38 35 34 34 36 38 40 40 38 35 31 27 25 23 23 23
18 18 20 21 21 20 19 22 25 25 24 24 25 26 24 25 29 33 34 34 34 35 37 39 40 40 40 41 42 43 44 46 48 50 50 48 44 37 29 20 12 7 7 8 8 6 6 8 13 19 23 26 28 30 33 38 43 47 50 51 52 51 51 50 49 48 46 43 40 37 36 36 37 38 40 40 40 37 34 30 27 24 23 23 23 23
17 18 19 19 19 19 19 21 24 25 24 23 24 25 24 23 26 31 33 34 34 34 36 38 40 41 40 41 41 42 44 46 48 49 50 50 48 44 38 31 24 16 10 7 7 6 6 8 14 21 26 30 33 37 41 46 48 49 50 50 50 49 49 49 48 46 43 40 37 36 37 38 39 40 40 39 36 33 30 27 25 24 24 24 23 21
16 17 18 18 18 18 18 20 23 25 25 23 24 24 24 22 24 29 32 34 34 34 34 36 38 40 41 41 41 41 43 46 47 48 49 50 50 49 46 41 35 28 22 16 11 8 8 12 17 24 29 32 36 40 45 49 50 49 50 49 49 49 49 48 46 44 41 38 37 36 37 38 39 39 38 36 33 31 28 27 26 25 25 23 21 18
15 17 17 18 18 18 17 19 23 25 24 23 23 24 24 23 23 26 29 32 33 34 34 35 37 40 41 41 41 42 43 45 47 48 48 49 50 50 49 47 44 39 33 28 23 18 15 17 22 28 32 35 39 44 49 51 51 50 51 51 50 50 49 47 45 43 40 38 36 36 37 37 38 37 36 34 32 30 29 27 26 25 23 21 20 19
14 16 17 18 18 18 18 19 22 25 24 22 22 23 24 23 22 23 27 31 33 34 34 34 36 38 40 41 42 42 43 44 45 46 46 47 48 49 50 50 49 46 42 38 35 31 27 24 26 31 36 40 45 50 53 54 53 53 53 53 52 50 48 46 44 42 39 37 36 36 37 37 37 36 35 33 31 30 29 27 25 23 21 21 22 22
14 15 17 18 18 18 18 19 22 25 25 23 21 21 22 22 22 21 24 28 31 33 33 34 34 36 38 40 41 41 42 42 42 43 43 45 46 48 49 50 51 50 48 45 42 39 36 34 32 34 38 44 49 53 55 55 55 55 54 53 51 48 46 44 42 40 39 38 37 38 38 38 37 35 33 32 30 29 27 24 22 21 22 23 23 22
14 15 16 17 18 17 17 17 20 23 23 22 20 20 21 21 21 21 23 24 27 30 32 33 33 33 36 38 40 40 41 42 42 42 42 43 44 46 48 50 50 51 51 49 47 45 42 40 38 38 40 45 50 53 55 56 55 54 52 50 47 45 43 42 40 40 39 39 39 40 39 38 36 34 31 30 28 25 23 20 20 21 22 22 21 20
15 15 15 16 17 17 17 17 18 19 21 21 21 22 24 23 21 20 20 21 23 26 28 31 31 32 33 35 37 38 39 40 42 44 44 44 44 46 47 49 50 51 51 51 50 48 46 45 44 43 43 46 50 53 54 53 52 51 48 46 44 43 42 41 41 41 41 41 41 41 39 37 35 32 29 27 25 22 19 17 17 17 18 18 17 16
14 14 14 14 15 17 17 18 18 19 21 22 22 22 24 24 23 20 18 18 19 21 23 26 30 33 33 33 34 35 37 37 39 41 44 45 46 46 47 48 48 49 50 51 50 49 48 47 46 45 45 46 48 50 51 50 48 47 45 44 43 42 42 42 42 42 42 42 41 39 37 34 32 29 27 24 22 20 17 15 14 14 14 13 12 11
14 14 14 14 15 16 17 18 19 20 21 22 21 19 19 21 21 20 18 18 18 19 19 21 26 31 34 35 34 33 34 34 36 39 42 43 44 43 43 45 46 47 48 49 49 48 48 48 47 46 46 46 47 48 49 48 47 46 44 44 43 43 43 42 42 41 40 39 37 35 32 30 28 25 23 21 19 18 17 15 14 13 12 11 10 9
14 14 14 14 15 16 18 19 19 19 20 20 19 18 18 19 20 19 18 19 19 18 17 18 22 26 32 36 36 34 32 32 34 37 40 41 41 41 41 42 43 44 47 47 47 47 47 47 47 46 45 45 46 47 47 47 46 45 44 44 43 43 42 41 40 39 38 36 34 31 29 26 24 22 20 19 18 18 17 16 15 14 13 11 9 7
13 13 13 13 14 16 17 18 18 19 19 19 19 19 19 20 20 20 18 17 18 18 17 18 20 24 29 33 35 34 32 31 32 34 37 39 40 39 39 40 42 44 45 45 46 46 47 47 46 45 44 44 44 45 45 45 44 44 43 43 42 41 40 39 38 38 37 35 33 31 28 25 23 22 21 20 20 19 18 17 16 14 12 10 8 5
13 13 12 12 13 15 17 17 17 18 18 18 19 19 19 20 19 19 17 16 16 17 17 17 17 19 23 30 34 34 31 30 30 31 33 36 38 39 39 39 40 42 44 44 44 44 45 45 45 44 43 42 43 43 44 43 43 42 41 40 40 39 38 37 37 36 35 33 32 30 28 26 24 23 22 21 20 19 18 17 15 13 11 9 6 3
13 13 12 12 13 14 16 17 17 17 17 18 18 19 19 19 18 18 17 16 16 16 16 15 10 7 11 21 30 33 31 28 27 29 32 33 35 37 38 38 38 40 42 43 43 42 43 43 42 42 41 40 41 42 42 41 41 40 39 38 37 36 36 35 34 33 32 30 29 28 27 26 24 23 22 21 20 19 17 15 14 12 10 7 5 4
13 13 13 13 13 13 15 16 17 18 18 18 18 18 19 19 19 18 17 17 16 16 15 15 11 6 5 9 20 28 28 26 26 28 31 31 33 35 37 37 38 39 40 41 42 42 42 41 40 39 38 39 39 39 38 38 37 37 36 36 36 35 34 33 32 31 29 28 27 26 25 24 24 23 21 20 19 18 17 16 14 12 10 9 9 9
13 14 14 13 13 13 15 16 17 18 18 17 16 17 18 19 19 19 18 18 17 16 15 15 14 13 11 10 16 22 25 24 25 27 28 28 30 33 35 36 37 38 39 40 40 40 40 39 38 37 37 37 37 36 35 34 33 32 32 33 33 33 33 32 31 29 28 26 25 24 23 22 22 21 20 19 18 17 17 16 15 14 13 12 12 12
14 15 15 14 14 14 15 16 17 18 18 17 16 16 16 17 18 19 18 17 17 17 16 16 15 14 14 16 19 21 22 23 24 24 24 26 28 30 32 33 35 36 37 38 38 39 39 38 37 36 36 35 35 34 33 32 31 29 28 28 28 29 29 29 28 27 26 25 24 22 21 21 20 19 18 18 18 18 18 17 17 16 14 13 13 12
14 15 17 17 15 14 14 16 17 17 17 16 16 16 16 16 17 17 17 17 16 17 17 17 16 16 17 18 19 20 21 22 21 19 20 23 26 28 29 30 32 34 34 35 36 37 38 38 37 35 34 33 33 32 32 31 30 29 28 26 25 25 25 25 25 25 25 24 24 23 23 22 22 21 21 20 19 18 17 16 15 14 14 13 13 12
15 16 16 17 17 16 15 15 15 15 16 17 16 16 15 15 15 16 16 16 16 16 17 16 17 18 20 21 21 21 22 22 20 17 17 18 21 24 26 28 30 32 31 32 33 35 36 37 36 34 32 32 31 31 30 30 29 28 26 25 23 23 22 22 22 23 23 24 24 24 24 23 23 22 21 20 19 18 17 16 15 14 14 13 12 11
17 17 17 17 17 16 15 14 14 14 15 16 16 16 15 15 14 15 15 15 15 15 16 17 19 21 23 24 24 24 24 23 22 20 18 14 15 20 23 26 28 29 28 28 30 31 33 34 34 33 32 31 31 30 30 29 28 27 26 25 24 23 22 22 22 22 22 23 23 23 23 23 22 20 19 18 17 16 16 15 14 13 13 12 11 9
18 17 17 17 16 16 15 14 13 13 14 15 15 16 16 15 15 14 14 15 15 15 15 17 19 21 22 25 26 27 26 25 24 23 19 15 15 18 22 24 26 26 26 26 27 29 30 31 32 32 31 30 30 30 29 29 28 28 27 26 26 25 24 24 23 23 23 22 22 22 22 21 20 19 17 16 15 14 13 12 12 11 11 10 10 9
17 17 16 16 16 15 15 14 13 12 12 13 14 15 16 15 15 15 16 16 16 15 15 17 18 18 18 21 24 25 26 26 26 24 19 14 15 19 21 24 24 23 23 25 26 28 29 29 29 30 30 29 29 29 28 28 27 27 27 27 26 26 25 25 24 24 24 23 23 22 21 20 18 17 16 15 14 13 12 11 11 10 10 10 10 10
15 15 15 15 14 15 15 14 13 11 11 12 14 15 16 16 17 18 19 18 17 16 16 16 15 14 15 17 20 22 23 24 25 23 20 14 14 17 20 23 24 23 23 24 26 27 28 28 28 27 27 27 27 27 26 26 26 26 26 26 26 25 25 25 25 24 24 23 22 21 20 18 17 16 15 14 13 12 12 11 11 10 10 10 10 10
14 14 14 14 15 15 15 14 14 13 12 12 13 15 16 17 18 19 19 18 17 17 16 14 11 11 14 15 16 18 22 23 22 21 19 16 14 13 16 18 21 22 23 25 26 26 27 27 27 26 25 25 24 24 24 25 25 25 25 25 24 24 24 24 23 23 22 21 20 18 17 16 15 14 14 13 13 13 12 12 11 11 10 10 10 10
14 15 15 15 16 16 16 16 15 14 14 13 14 15 17 19 19 18 16 15 15 16 16 13 9 8 10 11 13 16 21 23 21 18 16 15 12 11 13 13 15 18 19 21 24 27 27 26 26 25 24 23 23 22 22 22 23 23 24 24 23 23 22 22 21 20 19 18 17 16 15 14 14 13 13 13 13 13 12 12 12 11 11 10 10 9
15 15 16 17 17 18 18 19 18 17 16 15 15 16 18 20 20 18 15 14 15 15 15 13 11 9 8 9 12 16 21 22 21 18 16 14 12 12 13 11 10 10 10 10 16 23 25 25 24 23 23 22 21 21 21 21 21 22 22 22 22 22 21 20 19 18 17 16 15 14 14 13 13 13 13 12 12 12 12 12 12 11 11 11 10 10
15 16 17 18 19 20 20 21 21 20 19 18 17 17 17 19 18 17 15 16 16 15 14 13 12 11 9 8 9 12 15 19 19 18 16 13 12 13 14 13 11 8 4 3 5 9 15 19 21 21 20 20 20 20 20 20 21 21 20 20 20 19 19 18 17 16 15 15 14 14 13 13 13 12 12 11 11 11 11 11 11 11 11 11 10 10
15 16 18 19 20 20 22 23 23 23 23 22 21 19 18 17 17 17 17 18 18 17 15 14 14 13 11 8 5 4 6 15 17 16 15 11 11 14 15 15 13 11 6 4 2 1 3 8 14 17 18 19 19 19 19 19 19 19 18 18 18 17 17 16 16 15 15 14 14 14 13 13 13 12 12 11 11 11 11 11 11 10 10 10 10 9
15 16 17 18 20 21 22 23 24 24 25 24 24 22 20 19 18 17 18 18 19 18 17 16 15 15 15 12 8 5 5 12 15 15 14 9 10 15 16 15 15 14 11 8 6 4 2 2 7 13 16 18 18 18 18 18 17 17 17 17 16 16 15 15 15 15 14 14 14 13 13 13 13 12 12 12 11 11 11 10 10 10 9 9 9 9
14 15 17 18 20 21 22 23 24 25 25 25 25 24 23 21 20 19 18 18 19 19 19 17 16 15 16 16 14 12 12 13 14 14 14 9 9 13 17 17 17 16 16 15 13 10 7 5 5 9 13 16 17 17 17 17 17 16 16 16 16 15 15 14 14 14 14 14 13 13 13 13 13 12 12 12 12 11 11 10 10 9 9 9 9 9
15 16 17 18 19 20 22 23 24 24 25 24 24 24 23 23 22 21 20 19 19 19 19 18 17 15 14 14 14 15 16 15 15 14 14 12 9 11 18 19 18 17 16 16 16 14 12 9 7 6 9 13 16 16 16 16 16 16 15 15 15 15 14 14 14 14 13 13 13 13 12 12 12 12 12 12 12 11 11 10 10 10 9 9 8 9
16 17 18 18 19 20 21 21 22 23 23 23 23 23 22 22 22 22 21 21 20 20 19 19 19 18 17 15 14 14 16 15 15 15 14 13 12 13 17 18 19 17 14 12 11 10 9 10 9 7 6 8 12 14 14 14 14 14 14 15 15 14 14 14 13 13 13 12 12 12 12 11 11 11 11 11 11 11 11 10 10 10 10 9 8 8
18 18 18 18 18 18 19 20 20 21 21 21 21 21 21 21 21 21 21 21 21 21 21 20 20 19 19 18 17 16 15 14 14 14 14 13 14 14 14 15 17 17 15 13 11 9 8 9 10 10 8 6 6 8 10 11 11 12 13 13 14 14 14 14 13 13 12 12 12 12 11 11 10 10 10 10 10 10 10 10 10 10 10 10 9 8
18 18 17 17 17 17 17 18 18 18 18 19 19 19 19 19 20 20 20 20 20 20 20 20 20 20 20 19 18 17 15 14 13 13 13 12 13 14 14 14 15 16 16 15 13 11 9 8 8 9 9 8 6 4 6 8 10 11 12 13 13 13 13 13 13 12 12 12 11 11 11 10 10 10 10 10 9 9 9 9 10 10 10 10 9 8
16 16 16 16 16 16 16 17 16 16 16 16 16 16 16 17 17 18 19 19 19 19 19 19 20 20 20 19 19 18 17 15 14 13 13 12 13 14 15 15 15 15 15 14 13 12 10 7 5 5 6 8 8 7 7 7 9 10 11 11 11 12 12 12 12 12 11 11 11 11 10 10 10 9 9 9 9 8 9 9 9 9 9 9 9 8
15 14 14 14 14 15 15 15 15 14 14 14 14 14 14 14 15 16 17 18 18 18 19 18 18 18 18 18 18 18 17 17 16 15 13 12 12 13 14 14 14 14 13 13 13 13 12 10 7 5 4 5 7 8 8 7 7 8 8 9 10 11 11 11 11 11 11 11 11 10 10 10 9 9 9 9 8 8 9 9 8 8 8 8 8 7
13 13 13 12 12 13 13 13 12 12 12 12 12 12 13 13 13 13 15 16 17 17 17 17 17 17 17 17 17 17 17 16 16 15 14 13 13 13 13 14 14 13 12 12 12 13 15 14 13 10 8 6 5 6 8 8 7 6 6 7 9 10 10 10 10 10 10 10 10 10 10 10 9 9 9 9 9 9 9 8 8 8 7 7 6 6
12 12 11 11 11 11 11 10 10 9 9 10 11 12 12 12 11 11 12 13 14 15 15 15 14 15 15 16 16 15 15 15 14 14 13 13 12 12 12 13 12 12 11 11 12 13 14 15 15 14 13 11 10 10 10 9 8 6 6 7 8 8 8 8 8 9 9 9 10 10 10 10 10 10 9 9 9 9 9 8 8 8 7 7 6 6
11 11 11 11 11 10 10 9 9 8 8 9 10 11 12 12 11 11 10 10 10 11 11 11 11 12 14 14 14 14 13 13 12 12 11 11 11 10 11 11 11 11 11 11 12 13 13 14 14 14 12 12 11 11 10 10 8 7 7 7 6 6 6 7 8 8 8 9 9 9 10 10 10 10 10 10 9 9 9 8 8 8 8 7 7 7
11 11 11 11 10 10 10 10 10 10 9 10 10 11 10 10 10 10 11 10 9 8 8 7 8 10 12 13 14 13 12 12 11 10 9 9 9 8 8 8 9 10 10 11 12 12 12 12 12 12 11 10 10 10 10 9 9 8 7 6 5 4 4 6 7 7 7 8 9 10 10 10 10 10 10 9 9 9 9 9 8 8 8 8 8 8
10 10 10 10 10 10 11 11 11 11 11 12 11 11 10 10 10 10 10 10 10 9 8 7 7 8 11 13 12 12 12 11 10 9 9 8 8 7 7 7 8 10 11 11 12 12 12 12 12 11 10 9 9 10 10 9 8 8 8 7 6 6 6 6 6 7 8 8 9 10 10 10 9 9 9 9 9 9 9 9 9 9 9 9 9 9
10 9 9 9 9 9 9 10 10 11 12 12 11 11 10 11 10 10 10 10 10 9 9 7 7 8 10 10 10 10 11 12 11 10 9 9 9 9 9 9 11 11 12 12 12 12 12 12 11 10 9 9 9 9 9 8 8 8 8 8 7 6 6 6 6 6 8 9 9 10 10 9 9 9 9 10 10 10 10 10 10 10 10 10 10 10
10 9 9 9 9 9 9 9 9 10 10 11 11 11 10 10 10 10 10 10 10 9 9 8 8 9 9 8 8 8 9 11 12 12 11 11 11 11 12 13 13 13 12 12 12 12 12 11 10 9 8 8 9 9 8 8 7 7 7 7 7 6 6 5 6 6 8 9 9 9 9 8 8 9 10 10 10 10 10 10 10 11 11 11 11 11
10 10 10 9 9 9 9 9 9 9 9 10 10 10 10 10 10 10 10 10 9 9 8 9 10 10 10 9 8 8 8 9 11 12 12 12 12 12 13 14 14 13 13 13 13 12 12 11 10 8 8 8 8 8 7 7 6 6 6 6 6 5 6 6 6 7 8 8 9 9 8 8 8 8 9 10 10 10 10 10 10 11 11 11 11 11
9 9 9 9 9 9 9 9 9 9 9 8 9 9 9 10 10 9 9 9 9 8 8 8 9 9 9 9 9 9 9 9 10 11 11 10 11 12 12 12 13 13 13 13 13 12 12 12 11 9 8 7 7 6 6 6 6 6 5 5 5 5 6 6 7 7 8 8 9 8 7 7 7 8 8 9 10 11 10 10 10 11 11 11 11 11
9 9 9 9 9 9 9 9 9 9 9 8 8 8 8 9 9 9 9 9 8 8 8 8 8 8 8 8 8 8 8 8 9 10 9 9 9 9 9 9 9 10 10 11 11 11 12 13 13 13 12 9 6 6 5 5 5 5 4 4 4 4 5 6 6 7 8 8 8 8 7 6 6 6 7 9 11 11 10 10 10 10 11 11 11 11
9 8 8 9 9 9 8 8 8 8 8 7 7 7 7 8 9 9 9 8 8 8 8 8 8 8 8 7 7 7 7 7 8 9 9 8 7 7 7 7 6 5 5 6 6 8 9 11 12 13 14 13 9 6 5 5 5 4 4 3 3 3 4 6 6 7 7 7 7 7 6 6 5 5 6 8 10 10 10 10 10 10 10 10 11 11
8 8 8 8 8 8 8 7 7 7 7 7 7 7 7 7 8 8 8 8 8 8 8 7 7 7 7 7 6 6 6 6 7 8 8 7 7 7 7 7 6 5 4 3 2 3 4 5 6 8 12 13 12 9 6 5 5 5 4 4 3 3 4 5 6 6 6 6 6 6 6 5 5 5 5 7 9 11 11 11 10 9 9 10 10 10
Wind_Direction
339 341 345 348 350 351 355 359 360 360 360 2 4 5 7 11 15 19 23 26 26 26 26 27 28 29 30 30 29 28 28 29 31 33 36 39 45 54 100 196 208 212 215 213 207 200 193 189 186 182 176 167 158 148 140 132 154 172 170 165 159 153 148 147 147 148 149 151 152 153 153 152 152 154 158 162 163 160 155 151 149 148 147 148 150 154
342 344 348 351 352 353 355 359 1 2 0 2 3 5 7 11 14 18 23 26 28 28 27 28 29 30 31 31 30 30 30 31 33 35 37 40 45 53 73 129 170 183 189 190 188 186 185 184 178 169 158 149 141 134 130 135 150 158 158 155 149 145 143 143 144 145 147 149 149 148 147 147 149 152 155 155 153 150 147 146 146 146 146 149 153 160
344 347 349 351 353 355 356 359 1 2 3 3 4 6 9 13 16 18 20 23 27 29 29 29 30 31 31 32 32 31 31 33 35 37 39 42 45 50 58 76 124 164 172 174 177 181 186 184 172 160 151 143 135 130 131 139 147 149 147 145 141 139 140 140 141 142 143 142 141 140 142 144 147 148 148 146 145 144 144 144 144 145 148 153 160 165
348 350 350 351 353 356 358 359 1 2 3 4 7 9 13 15 17 19 21 23 26 29 30 31 32 32 31 32 32 32 33 35 36 38 40 43 45 49 53 58 70 103 156 174 179 185 192 185 170 158 150 141 133 130 133 140 143 143 141 139 138 138 138 138 138 137 136 135 136 138 141 143 144 143 143 143 143 143 143 143 144 148 154 160 163 164
351 353 352 352 353 355 357 0 2 3 4 6 9 11 15 17 18 20 22 25 27 29 30 32 33 33 32 31 31 33 35 37 39 40 41 44 46 49 51 55 60 68 87 124 152 169 182 177 166 158 150 141 134 132 135 140 141 140 138 137 137 137 136 135 133 132 132 134 137 140 141 142 141 141 142 142 143 143 143 144 148 154 159 161 161 158
352 355 355 355 355 355 357 1 4 5 6 7 9 12 15 17 19 21 23 25 27 29 30 32 33 34 34 32 32 34 37 40 41 41 42 44 46 49 51 53 56 60 67 78 94 120 151 162 160 155 150 143 136 135 138 140 140 138 136 135 134 133 132 131 131 132 135 138 140 140 140 141 141 142 143 143 143 143 144 147 152 156 158 157 153 144
353 357 359 0 360 359 1 4 6 7 6 6 8 11 14 17 20 22 24 25 27 29 31 33 35 36 35 34 34 35 38 40 41 42 42 44 46 49 51 53 55 57 60 65 72 83 106 134 146 148 146 142 139 138 140 141 139 136 134 132 132 131 131 131 133 135 138 140 141 142 142 142 143 143 143 143 143 144 145 148 151 153 151 146 137 125
355 359 3 3 2 2 4 7 9 9 8 8 8 9 10 14 19 22 24 27 28 30 31 33 34 35 35 35 35 36 38 39 40 41 41 42 44 47 51 53 55 57 59 62 66 71 82 101 121 133 137 137 136 136 138 138 136 134 132 131 131 131 131 133 135 137 140 142 144 144 144 144 144 143 142 142 142 143 144 146 146 143 136 129 122 118
1 3 5 6 5 3 3 5 8 10 11 11 11 10 9 11 14 19 24 27 29 30 31 31 32 33 34 35 36 37 38 40 41 41 41 42 43 46 49 53 55 58 59 61 64 68 73 82 95 109 120 125 128 130 131 132 132 131 130 130 130 131 133 135 137 140 143 145 146 146 146 145 144 142 141 140 140 141 141 140 135 128 122 119 118 119
10 9 8 8 9 8 6 3 4 7 12 15 17 17 16 13 13 16 22 25 28 30 31 32 31 30 32 34 36 37 38 41 43 44 44 44 45 46 49 52 55 58 60 62 63 66 70 73 79 89 101 111 117 120 123 124 126 127 128 128 130 132 134 137 140 143 145 146 147 146 146 145 143 142 141 140 139 139 138 133 127 122 121 122 124 125
14 13 11 9 9 11 11 6 3 5 11 16 20 22 23 20 17 17 20 21 24 27 31 33 33 31 30 31 33 35 37 39 42 45 47 47 47 48 49 51 54 57 61 62 64 65 68 71 74 78 86 98 107 113 117 119 121 123 125 128 130 133 136 139 141 143 144 144 144 144 143 142 141 140 139 138 137 137 136 134 131 129 131 132 133 133
15 14 14 12 11 10 10 8 8 10 14 18 20 20 18 17 17 20 22 21 21 23 28 32 35 35 33 31 31 33 36 37 39 41 45 47 48 48 49 50 52 54 58 60 62 64 68 71 73 74 77 85 96 106 113 118 121 123 126 129 131 134 136 137 138 139 139 139 138 138 137 135 134 134 133 133 133 134 137 142 145 146 146 146 144 142
19 17 17 17 15 13 10 9 10 14 17 20 21 17 12 10 14 20 26 26 23 22 28 34 36 37 36 35 34 33 35 37 40 42 44 45 46 46 47 48 49 51 54 55 57 59 64 70 73 74 76 80 87 95 105 112 118 122 124 127 129 130 131 132 132 132 132 131 130 129 127 125 124 125 127 129 132 136 143 150 156 158 156 153 149 147
18 18 19 19 18 16 13 13 14 16 18 20 20 17 11 11 15 21 27 27 24 24 32 39 41 39 37 36 35 35 36 37 41 44 45 45 46 48 49 50 51 52 53 53 53 55 60 65 69 73 76 80 84 89 95 102 108 113 117 120 122 123 124 124 124 124 124 124 123 122 120 120 121 124 129 134 139 145 150 155 159 160 159 156 154 155
18 18 20 20 19 17 15 15 16 17 17 18 18 17 17 18 20 23 26 24 22 24 33 42 45 43 39 35 35 36 37 39 42 44 45 44 46 49 52 53 54 55 55 53 52 53 57 61 65 68 74 80 85 89 93 95 99 103 107 111 114 116 118 119 119 119 119 120 120 121 123 125 129 134 139 143 147 150 153 156 160 163 166 169 173 180
22 22 22 21 20 18 15 16 16 16 16 18 19 20 21 20 20 22 24 23 24 27 33 39 43 43 38 36 36 37 37 39 42 45 45 43 44 48 53 55 56 57 57 55 54 54 56 58 61 65 69 76 84 90 93 94 96 98 101 105 108 112 114 116 117 117 118 119 121 124 128 132 136 141 145 147 148 149 152 156 161 168 175 183 189 194
25 24 23 23 20 17 14 15 16 16 16 19 22 24 25 23 23 24 25 26 29 32 34 38 39 36 32 31 33 37 39 40 43 47 48 44 43 46 52 56 57 57 58 58 57 56 57 58 59 62 66 72 80 86 90 92 93 95 97 99 103 107 110 113 114 116 118 120 122 125 128 132 137 140 143 144 145 147 151 158 166 173 176 172 159 130
27 25 23 22 19 15 12 14 14 15 16 19 21 23 26 27 28 29 30 32 34 36 38 41 43 43 35 23 24 31 42 43 46 50 50 46 43 45 51 55 57 59 59 59 59 59 60 59 60 62 65 71 76 81 85 87 89 90 92 93 96 100 104 108 112 115 118 120 121 123 125 128 132 135 137 138 140 144 151 159 165 166 156 137 120 110
30 27 24 21 16 14 13 13 12 12 12 14 16 20 24 27 30 32 34 36 38 41 44 46 46 45 44 27 23 31 44 48 52 54 53 47 42 43 49 53 56 58 59 59 60 61 62 61 61 63 66 72 76 80 83 85 87 89 90 91 93 95 99 103 107 111 115 117 118 119 120 122 125 128 130 130 131 134 137 139 138 135 128 120 113 107
35 30 24 19 16 15 15 13 11 10 9 10 14 19 22 25 29 32 35 37 41 45 50 51 48 44 41 33 31 37 48 54 57 58 57 50 44 43 47 52 55 57 58 58 61 63 64 63 62 63 66 71 76 80 83 87 90 93 95 97 98 98 99 100 102 104 106 107 108 108 108 109 109 110 109 108 107 107 109 110 110 111 111 109 104 98
42 35 30 27 24 20 16 13 13 13 13 14 16 18 20 23 28 32 35 39 42 46 51 52 49 45 44 40 37 41 51 57 60 61 61 53 46 44 47 52 56 58 57 57 61 65 67 66 64 63 64 68 73 77 80 83 87 91 94 98 100 100 99 99 99 99 99 98 98 97 95 94 94 93 92 92 92 93 93 95 97 98 97 95 91 87
50 43 38 37 35 30 24 19 18 19 21 22 20 16 17 21 26 31 37 42 47 51 55 57 56 54 53 49 47 49 57 61 63 65 66 57 45 42 48 54 59 59 57 57 60 65 69 69 68 66 64 66 70 74 77 80 83 85 88 90 92 93 93 94 94 94 94 94 93 92 91 90 90 90 90 90 90 90 90 89 89 88 87 85 85 85
57 51 45 42 40 37 32 28 26 27 32 35 33 29 27 29 34 39 44 48 53 58 63 64 63 60 58 56 55 57 60 62 66 70 71 65 47 41 49 57 61 60 59 59 61 65 70 71 71 70 68 67 68 71 74 78 81 84 86 88 90 90 92 92 93 93 93 93 92 91 90 90 89 90 90 90 89 88 88 88 87 87 87 88 90 95
59 54 49 46 43 40 37 33 31 33 40 46 48 47 47 48 50 52 53 55 57 61 64 64 62 58 56 55 54 54 57 61 65 70 73 70 56 48 52 59 61 61 60 62 65 68 71 73 74 75 73 70 70 71 72 75 78 81 85 87 90 91 93 93 93 93 92 92 90 88 87 86 85 86 87 88 89 90 91 93 94 95 96 99 104 110
59 56 52 50 48 47 44 41 39 41 47 54 57 59 61 63 65 65 62 58 57 59 62 62 58 53 49 49 48 48 51 57 63 68 73 73 62 54 56 62 64 63 62 64 69 72 73 73 75 77 77 75 74 74 74 75 76 78 81 83 86 88 89 90 90 89 88 87 85 84 82 81 81 82 84 86 88 91 95 98 99 100 102 105 110 113
63 61 58 57 56 55 54 52 51 53 60 65 67 69 72 74 73 67 59 53 51 52 57 59 57 52 49 48 44 42 44 51 58 65 71 77 67 57 57 64 68 68 65 66 69 72 72 71 72 74 75 76 77 77 78 79 79 78 79 80 82 83 84 84 84 83 82 81 81 80 80 80 80 81 83 85 88 91 94 95 95 96 98 103 109 114
67 65 63 62 62 62 62 61 61 63 70 75 79 80 79 77 69 59 48 43 43 48 53 57 57 53 49 48 44 40 41 45 50 57 66 73 69 57 55 65 72 73 70 68 68 70 71 70 71 72 73 76 78 80 82 83 83 83 83 83 82 81 81 81 81 81 80 80 80 81 82 83 85 86 88 90 91 92 92 91 91 91 93 99 108 116
69 68 67 66 66 67 68 68 68 69 73 78 82 83 80 73 62 49 39 38 43 48 52 56 58 57 54 52 46 42 42 42 43 47 56 66 64 53 51 63 74 79 77 71 68 68 71 70 71 72 73 75 77 79 80 81 83 84 85 85 84 83 82 81 81 81 82 83 84 86 88 91 92 93 94 95 95 94 92 91 90 90 92 97 106 114
71 71 71 70 70 70 71 71 71 71 73 74 76 77 76 71 63 52 45 46 47 48 49 50 52 56 61 59 52 45 41 38 37 41 49 59 57 50 49 53 65 78 85 81 70 65 64 66 68 70 71 73 75 76 77 77 77 79 80 81 82 82 82 81 81 81 82 84 86 89 91 93 94 95 96 96 96 95 94 92 90 91 93 98 104 109
70 71 71 71 70 71 71 71 71 71 71 71 72 73 75 76 72 67 62 59 55 51 49 46 44 44 48 52 49 42 35 31 32 37 46 53 50 44 46 47 49 55 75 103 86 63 55 59 64 67 70 71 73 74 74 75 75 76 76 77 78 79 80 81 80 80 80 81 84 87 89 90 92 92 92 92 92 92 92 91 91 92 94 97 100 103
69 68 68 69 70 70 70 70 69 69 69 69 69 70 73 77 80 79 75 69 64 59 57 53 48 45 43 45 44 34 21 20 26 35 41 47 45 43 46 47 47 50 59 81 115 115 54 54 59 64 71 71 70 71 72 73 75 75 75 75 75 75 76 78 80 80 79 79 80 82 85 87 88 89 88 87 86 86 87 88 90 92 93 93 94 94
73 70 69 69 70 70 69 69 68 68 68 68 67 68 69 72 77 81 81 79 76 71 67 64 60 57 55 58 61 54 24 19 27 37 42 47 45 46 53 54 54 56 63 72 88 108 114 87 62 64 71 71 70 70 70 71 72 73 74 74 73 72 71 72 75 77 77 77 77 78 79 82 84 85 85 84 83 81 81 83 85 88 90 90 89 88
77 74 71 70 70 70 70 69 68 67 66 66 66 67 68 69 71 75 79 83 85 82 76 72 68 64 62 61 60 53 40 33 35 42 48 53 50 50 56 60 62 64 69 73 80 88 96 109 94 75 71 71 71 70 69 68 68 69 70 71 71 70 68 66 68 70 72 73 75 76 76 78 79 81 82 81 80 78 77 76 77 78 81 83 85 85
80 76 73 71 70 70 70 69 68 67 65 65 65 66 68 69 69 71 72 75 80 84 85 81 76 70 65 61 56 50 45 42 42 45 52 58 60 57 57 59 62 66 70 71 75 80 85 93 101 96 79 73 72 71 68 66 65 65 66 67 68 69 67 65 64 65 67 69 71 73 75 77 78 80 80 80 78 77 75 73 72 71 71 73 76 80
80 76 73 70 69 68 67 67 66 66 65 64 63 64 66 68 70 70 71 71 72 74 78 80 80 78 74 68 60 51 45 43 42 43 49 59 67 67 61 59 61 65 65 69 74 78 79 81 89 99 98 81 73 70 68 67 66 65 64 64 65 66 65 63 63 64 65 66 67 69 72 74 77 79 80 80 79 77 75 74 72 70 68 67 67 71
77 74 71 69 68 67 67 66 66 65 64 64 63 63 65 67 69 71 71 72 71 71 71 71 72 73 74 72 68 60 52 47 44 43 46 55 65 69 66 62 64 66 66 68 76 84 87 83 84 87 90 86 76 70 68 70 70 68 66 64 63 63 62 60 60 62 63 65 66 67 67 69 72 75 78 78 79 78 77 76 74 72 69 66 64 64
75 72 71 70 69 69 68 67 67 66 65 65 64 64 64 66 69 71 72 72 72 72 71 69 67 66 67 67 68 66 61 56 52 49 48 53 63 70 73 71 70 70 69 69 73 81 88 90 83 76 71 66 66 68 67 72 73 70 67 64 63 62 61 59 57 58 61 65 68 67 67 67 68 70 73 74 76 76 76 75 74 72 70 68 64 62
77 74 73 71 71 71 70 69 68 68 66 67 66 65 64 66 69 71 73 73 73 72 72 70 68 65 63 62 63 64 63 62 60 58 56 57 64 72 77 76 75 74 74 74 76 80 85 89 84 74 65 61 66 74 77 76 73 70 69 67 65 64 62 60 58 57 60 65 68 69 69 69 70 70 71 72 72 72 72 70 70 69 69 68 65 61
83 80 77 76 75 74 72 71 71 71 72 73 72 69 65 64 66 70 72 73 73 72 71 70 69 66 63 60 60 61 61 61 62 62 62 63 68 74 78 77 75 74 74 75 78 80 81 80 79 82 85 73 70 72 75 74 72 72 72 71 69 66 63 60 58 59 61 64 68 70 70 70 71 71 69 68 67 65 64 63 62 62 63 65 66 64
91 89 87 86 85 83 81 79 78 78 79 80 79 75 72 67 64 64 68 70 71 71 71 71 70 69 65 61 59 58 58 58 59 61 63 65 68 73 78 80 78 76 75 75 75 76 78 78 78 79 83 86 80 71 66 66 67 68 70 68 62 59 60 58 58 58 59 61 65 67 68 68 68 66 64 62 59 57 56 55 55 54 55 58 63 67
98 97 96 95 93 89 87 88 89 89 90 92 92 88 83 78 73 70 67 66 66 65 65 65 67 70 71 68 63 60 58 58 58 59 62 65 66 69 74 80 81 80 80 79 77 76 77 79 79 78 78 79 77 72 68 64 61 61 62 61 61 60 60 57 56 56 57 59 60 62 63 63 62 60 58 57 55 54 54 52 51 50 49 48 49 50
101 100 99 96 92 92 95 97 97 97 99 103 99 92 85 81 79 78 77 76 72 66 59 53 54 61 68 72 70 67 63 60 59 59 62 66 69 70 74 80 83 85 86 84 81 79 79 80 80 78 76 75 75 73 68 63 59 57 57 59 61 65 65 59 55 53 55 59 59 58 59 59 59 58 56 55 55 55 55 53 52 49 47 44 41 38
101 98 94 90 88 88 90 90 91 94 99 99 96 92 89 85 82 82 84 87 87 83 74 62 53 51 55 60 63 64 64 62 61 60 62 68 74 78 81 84 85 86 85 84 82 81 81 80 80 78 75 73 74 75 73 65 56 51 50 52 51 49 53 54 52 52 54 58 58 58 57 57 57 58 58 58 58 58 57 56 53 50 46 43 39 38
95 91 88 86 82 78 75 75 76 80 85 89 91 94 96 97 94 89 88 89 89 88 83 74 60 50 50 51 50 50 52 57 60 61 62 68 75 84 91 90 86 83 80 82 84 83 81 79 78 78 76 75 74 74 71 64 54 46 42 45 49 53 57 56 53 53 57 58 58 57 56 56 58 60 62 62 62 60 58 55 53 50 46 43 41 40
92 92 91 89 87 84 80 76 71 69 72 79 84 89 94 102 103 100 97 94 91 86 80 77 69 60 57 56 53 46 40 44 51 58 63 68 74 79 85 86 84 81 80 81 84 86 85 83 81 79 79 77 76 74 70 63 54 46 41 42 49 59 64 61 57 58 62 61 60 58 56 55 56 60 62 62 60 57 54 50 47 45 44 44 43 42
96 95 94 91 89 88 87 84 78 69 64 65 70 77 86 95 99 98 97 92 84 77 71 71 69 65 61 60 60 55 47 40 42 49 59 67 73 78 81 81 81 80 81 81 81 81 82 84 84 83 81 76 72 70 68 63 59 53 47 43 48 58 68 68 64 62 64 64 63 60 57 54 53 58 63 63 60 56 51 47 44 42 41 42 43 42
100 98 95 92 91 91 91 91 88 80 69 61 60 66 75 83 86 85 83 79 73 68 66 65 65 62 57 56 57 58 56 46 40 42 52 61 68 73 78 80 81 81 82 82 82 81 81 81 81 81 78 76 72 67 62 61 62 62 56 48 45 50 62 70 69 66 65 67 66 64 59 54 56 61 66 66 64 59 53 47 44 42 41 40 41 41
102 99 96 95 93 92 92 94 95 93 85 72 62 61 69 78 80 77 74 72 71 72 72 71 69 65 59 55 52 52 51 47 40 38 46 55 62 66 69 73 77 81 83 84 84 83 81 78 74 70 67 71 78 76 61 57 61 66 65 56 47 46 55 69 73 69 68 69 70 67 63 59 63 70 72 73 70 64 58 51 45 41 39 37 38 39
102 101 98 97 95 92 91 91 93 94 92 84 73 63 64 75 80 80 78 75 74 76 78 79 77 73 68 63 56 50 45 41 34 33 39 49 58 62 63 63 62 66 73 79 83 84 81 76 69 62 58 57 68 78 65 58 62 72 76 67 57 54 61 71 75 74 73 72 71 71 69 67 66 69 73 79 76 70 63 57 49 42 36 34 35 38
103 102 100 100 97 95 93 92 91 91 91 90 85 77 69 71 76 80 81 78 77 78 80 80 79 78 76 71 65 57 48 37 28 26 30 42 51 55 58 59 56 53 54 62 74 83 84 80 71 61 54 50 51 59 66 65 66 70 77 69 58 59 73 78 79 78 74 72 71 70 71 73 72 71 75 82 81 76 69 63 55 45 36 32 34 38
107 104 102 101 100 98 96 93 91 91 91 92 91 87 80 75 73 75 78 79 81 81 81 79 78 78 78 77 73 64 53 38 29 24 25 37 46 50 51 52 54 57 58 54 67 92 99 92 77 63 54 47 44 46 58 69 70 66 63 59 49 50 69 80 83 81 76 72 70 70 72 76 77 78 80 87 85 78 72 67 61 50 36 31 33 39